Вернуться в каталог

STARLINK-3556

АктивенСвязьVLEO
NORAD 51877·PAYLOAD·🇺🇸 United States

Запущен Mar 3, 2022 с Cape Canaveral Space Force Station

Loading…

Ближайшие Пролёты (ближайшие 24 часа)

TLE

СвежийSource: CelesTrak SupGP

Эпоха: Sep 15, 2026, 01:38 UTC

1 51877C 22022AB  26258.06854167 -.00034206  00000+0 -10107-2 0  2581
2 51877  53.1570 212.7934 0001271  89.8885 141.9842 15.34406921    11

Отслеживайте STARLINK-3556 в реальном времени с AllMySat

Download on the App Store